Location: Balls_Creek
(35.6670°N, 81.1170°W)
Time: 18:15:21
(UTC-04:00)

Daily predictions for brighter satellites

Satellite Brightness Start Highest point End
(mag) Time Altitude Azimuth Time Altitude Azimuth Time Altitude Azimuth
ATLAS 3B CENTAUR R/B 4.4 19:27:46 10° SW 19:35:10 47° SSE 19:54:41 10° E
ATLAS CENTAUR R/B 4.1 19:25:07 10° NW 19:39:56 49° NNE 19:45:04 10° ESE
Cosmos 304 Rocket 3.8 19:36:08 10° S 19:40:49 59° ESE 19:45:34 10° NNE
OAO 3 Copernicus 4.4 19:40:13 10° W 19:45:18 82° S 19:50:22 10° E
COSMO-SKYMED 1 3.5 19:46:26 10° N 19:50:41 54° WNW 19:54:54 10° SSW
Meteor 1-24 Rocket 4.3 19:47:02 10° N 19:52:28 37° ENE 19:57:43 10° SE
ISS -3.2 19:51:23 10° SSW 19:54:26 38° SE 19:57:29 10° ENE
Thor Agena Rocket 3.5 19:49:31 10° NNE 19:54:44 65° ESE 19:59:50 10° S
Cosmos 1758 Rocket 3.7 19:51:22 10° N 19:55:52 84° W 20:00:21 10° S
Cosmos 1726 Rocket 4.0 19:52:04 10° SSW 19:56:23 67° W 20:00:42 10° N
USA 234 3.5 19:51:50 10° SE 19:58:23 78° SW 20:04:58 10° NW
CZ-4 R/B 4.4 19:55:44 10° SW 19:58:56 22° W 20:02:11 10° NW
ALOS 2.2 19:55:55 10° SSE 20:00:33 77° ENE 20:05:14 10° N
BREEZE M DEB (TANK) 4.3 19:56:49 10° NW 20:03:56 35° NNE 20:06:19 15° ENE
Cosmos 2181 Rocket 4.1 19:59:02 10° N 20:05:13 83° W 20:11:19 10° S
NOAA 12 4.2 20:00:18 10° SSE 20:05:31 85° WSW 20:10:49 10° NNW
SJ-6B 3.4 20:03:00 10° SE 20:06:41 36° ENE 20:10:18 10° N
SPOT 3 Rocket 4.4 20:02:03 10° S 20:07:05 55° W 20:12:09 10° NNW
Cosmos 990 Rocket 4.2 20:01:56 10° NNW 20:07:05 74° WSW 20:12:11 10° S
SJ 16-02 2.9 20:05:13 10° NNE 20:08:06 17° ENE 20:09:12 16° E
Cosmos 1656 Rocket 3.6 20:02:56 10° NNW 20:08:34 72° ENE 20:14:05 10° SSE
FENGYUN 3A 3.6 20:03:51 10° SSE 20:09:12 87° ENE 20:14:36 10° NNW
Cosmos 1953 4.0 20:11:47 16° ENE 20:11:47 16° ENE 20:13:35 10° NE
BREEZE-M DEB (TANK) 3.9 20:09:43 10° S 20:11:12 13° SE 20:11:12 13° SE
H-2A R/B 2.9 20:08:15 10° SSE 20:11:49 46° ENE 20:15:25 10° N
Cosmos 2074 Rocket 3.9 20:07:02 10° S 20:13:12 72° E 20:19:23 10° N
Cosmos 1125 Rocket 4.0 20:13:09 10° N 20:18:06 38° ENE 20:21:54 16° SE
FREGAT/IRIS 2.5 20:15:14 10° SSE 20:18:15 78° ENE 20:21:16 10° N
Cosmos 2228 3.8 20:14:11 10° SSW 20:18:29 56° W 20:22:45 10° N
Geosat 3.9 20:17:25 10° SSE 20:22:25 76° ENE 20:27:28 10° NNW
Envisat 4.1 20:21:01 20° E 20:22:35 24° ENE 20:26:34 10° NNE
Cosmos 1356 Rocket 3.4 20:19:41 10° N 20:24:01 87° E 20:28:18 10° S
Cosmos 1544 2.9 20:20:31 10° S 20:24:05 69° E 20:27:41 10° NNE
Cosmos 1900 4.3 20:25:34 10° SSW 20:30:34 65° ESE 20:35:40 10° NE
COSMOS 2406 3.6 20:26:07 10° SSW 20:31:47 69° WNW 20:37:31 10° NNE
Meteor 1-22 Rocket 4.3 20:26:41 10° S 20:32:26 80° W 20:37:58 10° N
ATLAS 2AS CENTAUR R/B 4.3 20:27:34 10° N 20:33:19 21° NE 20:36:22 17° ENE
Cosmos 1766 3.6 20:31:53 10° SSW 20:35:47 66° W 20:39:41 10° N
Cosmos 1812 Rocket 3.5 20:32:18 10° S 20:36:42 66° E 20:41:08 10° NNE
Resurs 01 Rocket 2.1 20:38:07 33° ESE 20:39:13 40° ENE 20:43:21 10° N
Meteor 2-8 Rocket 4.3 20:34:34 10° N 20:40:41 71° E 20:46:44 10° SSE
In-Cosmos 22 4.2 20:35:56 10° N 20:41:41 83° E 20:47:27 10° S
MOS 1-B Rocket 4.2 20:40:08 23° SE 20:43:31 44° ENE 20:48:53 10° N
NOSS 3-1 (A) 4.1 20:35:41 10° NNW 20:43:33 88° ENE 20:51:13 14° SSE
Cosmos 1674 4.4 20:40:23 10° NNE 20:41:52 19° NE 20:41:52 19° NE
GP-B 3.2 20:39:39 10° NNE 20:43:59 51° E 20:46:08 27° SSE
FengYun 1-2 T 4.5 20:40:15 10° S 20:45:50 72° WSW 20:51:25 10° NNW
Nadezhda 3 Rocket 4.1 20:39:44 10° N 20:45:53 53° E 20:50:14 19° SSE
SL-27 R/B 2.4 20:45:48 10° SSW 20:49:24 89° WNW 20:53:03 10° NNE
Meteor 2-19 Rocket 4.3 20:43:44 10° S 20:49:47 84° E 20:55:51 10° N
Cosmos 540 Rocket 4.2 20:46:23 10° SSW 20:51:20 52° WNW 20:56:21 10° N
Cosmos 2285 Rocket 4.3 20:47:26 10° S 20:53:25 43° E 20:59:26 10° NNE
Cosmos 1758 3.1 20:51:38 10° S 20:55:38 76° E 20:59:38 10° N
Meteor 1-21 Rocket 4.5 20:50:49 10° N 20:56:16 45° ENE 20:57:04 43° E
HJ-1C 4.4 20:54:26 15° S 20:56:56 44° W 21:00:10 10° NNW
Cosmos 1295 Rocket 4.4 20:56:34 10° SSE 21:02:30 55° E 21:08:24 10° NNE
Cosmos 1805 4.3 21:03:54 10° SSW 21:07:38 45° W 21:11:24 10° N
SL-8 Rocket 4.3 21:14:55 43° ENE 21:14:55 43° ENE 21:19:40 10° NNE
CZ-2D R/B 3.9 21:13:42 48° SW 21:14:13 53° W 21:17:58 10° NNW
Cosmos 292 Rocket 4.0 21:10:22 10° SSW 21:15:11 68° WNW 21:20:02 10° NNE
Cosmos 2278 4.4 21:15:44 10° N 21:20:04 38° NE 21:20:04 38° NE
Spot 2 Rocket 3.6 21:28:02 60° SSW 21:28:46 70° WSW 21:33:48 10° NNW
ISS -1.1 21:28:27 10° W 21:30:17 19° NW 21:30:17 19° NW
Milstar 3 Cent rocket 3.1 21:27:24 10° WSW 21:30:39 30° SSW 21:30:39 30° SSW
Cosmos 1697 Rocket 4.2 21:35:45 10° N 21:38:32 25° NNE 21:38:32 25° NNE
Cosmos 1980 Rocket 4.3 21:38:26 10° N 21:39:51 15° NNE 21:39:51 15° NNE
SJ 16-02 2.8 21:42:47 10° NW 21:46:15 34° W 21:46:15 34° W
Cosmos 1953 4.3 21:47:22 28° WNW 21:47:22 28° WNW 21:50:41 10° NNW
Envisat 4.3 22:01:14 34° W 22:01:22 34° W 22:06:00 10° NNW
Resurs 01 Rocket 4.3 22:15:42 15° W 22:15:50 15° W 22:18:26 10° WNW
FALCON 9 R/B 3.6 22:13:46 10° W 22:15:43 33° W 22:15:43 33° W
ATLAS 2AS CENTAUR R/B 3.3 22:17:37 10° NNW 22:23:48 57° NNW 22:23:48 57° NNW
